SCP
0 0 0 0 0 0 0 0 0 0 0 0 0 0 0 0 0 0 0 0 0 0 0 0 0 0 0 0 0 0 0 0 0 0 0 0 0 0 0 0 0 0 0 0
0 0 0 0 0 0 0 0 0 0 0 0 0 0 0 0 0 0 0 0 0 0 0 0 0 0 0 0 0 0 0 0 0 0 0 0 0 0 0 0 0 0 0 0
0 0 0 0 0 0 0 0 0 0 0 0 0 0 0 0 0 0 0 0 0 0 0 0 0 0 0 0 0 0 0 0 0 0 0 0 0 0 0 0 0 0 0 0
0 0 0 0 0 0 0 0 0 0 0 0 0 0 0 0 0 0 0 0 0 0 0 0 0 0 0 0 0 0 0 0 0 0 0 0 0 0 0 0 0 0 0 0
0 0 0 0 0 0 0 0 0 0 0 0 0 0 0 0 0 0 0 0 0 0 0 0 0 0 0 0 0 0 0 0 0 0 0 0 0 0 0 0 0 0 0 0
0 0 0 0 0 -0 -0 -0 0 0 0 0 0 0 0 0 0 0 0 0 0 0 0 0 0 0 0 0 0 0 0 0 0 0 0 0 0 0 0 0 0 0 0 0
0 0 0 0 0 -0 -0 -0 0 0 0 0 0 0 0 0 0 0 0 0 0 0 0 0 0 0 0 0 0 0 0 0 0 0 0 0 0 0 0 0 0 0 0 0
0 0 0 0 0 -0 -0 -0 0 0 0 0 0 0 0 0 0 0 0 0 0 0 0 0 0 0 0 0 0 0 0 0 0 0 0 0 0 0 0 0 0 0 0 0
0 0 0 0 0 -0 -0 -0 -0 0 0 0 -0 0 0 0 0 0 0 0 0 0 0 0 0 0 0 0 0 0 0 0 0 0 0 0 0 0 0 0 0 0 0 0
0 0 0 0 0 -0 -0 -0 0 0 0 0 -0 -0 -0 0 0 0 0 0 0 0 0 0 0 0 0 0 0 0 0 0 0 0 0 0 0 0 0 0 0 0 0 0
0 0 0 0 0 0 0 0 0 0 0 0 0 -0 -0 0 0 0 0 0 0 0 0 0 0 0 0 0 0 0 0 0 0 0 0 0 0 0 0 0 0 0 0 0
0 0 0 0 0 -0 -0 0 0 0 0 0 0 0 -0 0 0 0 0 0 0 0 0 0 0 0 0 0 0 0 0 0 0 0 0 0 0 0 0 0 0 0 0 0
0 0 0 0 0 -0 -0 -0 0 0 0 0 0 0 0 0 0 0 0 0 0 0 0 0 0 0 0 0 0 0 0 0 0 0 0 0 0 0 0 0 0 0 0 0
0 0 0 0 0 -0 -0 -0 0 0 0 0 0 0 0 0 0 0 0 0 0 0 0 0 0 0 0 0 0 0 0 0 0 0 0 0 0 0 0 0 0 0 0 0
0 0 0 0 0 0 -0 0 0 0 0 0 0 0 0 0 0 0 0 0 0 0 0 0 0 0 0 0 0 0 0 0 0 0 0 0 0 0 0 0 0 0 0 0
0 0 0 0 0 0 0 0 0 0 0 0 0 0 0 0 0 0 0 0 0 0 0 0 0 0 0 0 0 0 0 0 0 0 0 0 0 0 0 0 0 0 0 0
0 0 0 0 0 0 0 0 0 0 0 0 0 0 0 0 0 0 0 0 -0 0 0 0 0 0 0 0 0 0 0 0 0 0 0 0 0 0 0 0 0 0 0 0
0 0 0 0 0 0 0 0 0 0 0 0 0 0 0 0 0 0 0 0 0 0 0 0 0 0 0 0 0 0 0 0 0 0 0 0 0 0 0 0 0 0 0 0
0 0 0 0 0 0 0 0 0 0 0 0 0 0 0 0 0 0 0 0 0 0 0 0 0 0 0 0 0 0 0 0 0 0 0 0 0 0 0 0 0 0 0 0
0 0 0 0 0 0 0 0 0 0 0 0 0 0 0 0 0 0 0 0 0 0 0 0 0 0 0 0 0 0 0 0 0 0 0 0 0 0 0 0 0 0 0 0
0 0 0 0 0 0 0 0 0 0 0 0 0 0 0 0 0 0 0 0 0 0 0 0 0 0 0 0 0 0 0 0 0 0 0 0 0 0 0 0 0 0 0 0
0 0 0 0 0 0 0 0 0 0 0 0 0 0 0 0 0 0 0 0 0 0 0 0 0 0 0 0 0 0 0 0 0 0 0 0 0 0 0 0 0 0 0 0
0 0 0 0 0 0 0 0 0 0 0 0 0 0 0 0 0 0 0 0 0 0 0 0 0 0 0 0 0 0 0 0 0 0 0 0 0 0 0 0 0 0 0 0
0 0 0 0 0 0 0 0 0 0 0 0 0 0 0 0 0 0 0 0 0 0 0 0 0 0 0 0 0 0 0 0 0 0 0 0 0 0 0 0 0 0 0 0
0 0 0 0 0 0 0 0 0 0 0 0 0 0 0 0 0 0 0 0 0 0 0 0 0 0 0 0 0 0 0 0 0 0 0 0 0 0 0 0 0 0 0 0
0 0 0 0 0 0 0 0 0 -0 -0 -0 -0 -0 0 0 -0 -0 0 0 0 0 0 0 0 0 0 0 0 0 0 0 0 0 0 0 0 0 0 -0 0 0 0 0
Wind_Speed
1 2 5 7 8 5 3 3 5 5 3 3 7 10 11 7 4 6 6 5 6 7 5 3 4 4 4 4 5 5 4 4 3 3 3 3 4 3 2 2 3 3 3 3
2 5 7 4 4 4 4 5 6 5 2 3 5 9 9 6 6 7 6 7 7 5 2 3 3 3 4 5 5 5 5 5 4 3 3 3 3 2 2 2 3 3 3 3
6 4 3 4 3 4 6 6 6 5 3 2 2 8 5 4 2 3 4 5 5 6 6 5 4 5 4 5 6 6 5 5 4 3 2 2 1 1 1 2 3 3 4 4
4 3 2 3 5 5 6 4 5 4 1 4 2 5 6 4 3 3 4 4 5 4 4 4 4 4 5 5 5 5 5 5 4 4 4 4 4 3 3 3 2 3 3 4
4 2 2 5 5 5 5 1 1 2 2 3 2 4 9 2 4 5 5 4 4 3 4 4 4 5 4 3 4 4 4 4 4 4 5 4 3 2 1 2 2 2 2 3
3 2 2 3 2 3 2 2 2 2 2 4 5 6 8 4 6 5 4 3 2 2 2 2 2 2 2 2 2 3 4 4 3 4 4 4 4 3 2 2 3 2 2 2
2 3 2 1 1 0 2 4 2 3 1 7 2 5 10 6 5 5 5 3 2 1 1 1 1 1 2 2 2 3 4 3 3 4 4 4 4 4 5 4 4 3 3 3
3 4 4 3 4 4 4 5 6 5 5 5 2 7 8 4 3 2 2 1 0 0 0 1 1 1 1 2 2 3 3 3 3 3 4 3 3 3 3 3 3 4 4 4
6 5 0 2 1 4 4 4 3 4 0 3 5 6 7 1 1 0 1 1 1 0 0 0 1 1 1 1 2 2 3 2 2 3 3 2 3 3 3 3 3 3 3 3
5 3 2 1 1 1 2 4 3 4 4 4 5 5 5 4 3 1 1 1 1 1 1 1 0 1 0 0 1 1 2 2 2 2 2 2 2 3 3 3 3 3 3 3
3 4 1 0 5 6 4 3 3 3 4 5 4 7 5 5 4 3 2 1 1 1 1 0 0 0 0 1 1 1 1 1 1 1 1 1 1 1 2 2 3 3 3 3
3 4 3 6 3 2 5 6 7 5 5 4 4 7 3 3 3 3 2 1 1 1 1 0 0 0 1 1 1 0 0 0 1 1 1 1 1 0 1 1 2 2 2 3
5 4 1 3 2 2 4 4 5 3 3 4 5 8 2 1 0 1 1 0 0 0 1 1 1 1 0 0 0 1 1 1 0 0 1 0 0 1 1 1 1 1 2 2
2 4 7 8 6 5 5 5 6 5 5 6 9 9 6 4 3 3 2 1 1 0 0 1 0 1 1 0 0 1 1 1 0 1 1 0 1 1 1 1 1 1 1 2
2 3 4 5 3 3 4 5 7 9 9 9 8 9 9 6 5 3 1 1 0 1 1 1 1 1 1 1 1 1 1 1 1 0 0 1 1 1 1 0 0 0 1 1
2 3 1 3 2 3 5 7 9 10 8 9 8 11 7 4 1 1 1 1 1 1 1 1 1 1 2 2 1 2 2 1 1 0 1 1 1 1 1 1 0 0 0 1
3 4 2 3 2 2 8 10 12 8 7 8 11 11 4 3 3 3 2 2 2 2 2 2 2 1 2 2 1 1 1 1 1 1 1 1 1 1 1 1 0 0 1 0
5 4 2 1 2 9 8 3 7 8 6 6 6 5 4 5 4 1 1 2 2 2 2 2 1 1 2 2 1 1 1 1 1 1 1 2 1 1 1 1 1 1 1 1
5 6 4 3 4 9 7 2 4 6 5 4 7 6 4 3 0 1 1 1 2 2 1 1 1 1 1 2 1 1 2 2 2 2 2 2 1 1 1 1 1 1 1 1
1 3 4 4 5 9 5 3 2 3 5 2 3 4 3 1 2 3 2 2 1 1 1 1 1 1 2 2 2 2 2 2 2 3 3 2 2 1 1 2 2 1 1 1
3 3 5 6 7 9 5 3 2 4 5 1 1 2 1 3 3 2 2 2 1 1 1 1 1 1 1 2 2 1 2 2 3 3 3 2 2 2 2 1 1 1 1 1
8 7 7 5 7 10 1 4 5 4 1 1 0 1 1 2 2 2 2 2 1 1 1 1 1 1 2 2 1 1 2 4 3 3 3 3 2 2 1 1 1 0 0 1
7 8 6 9 8 2 3 4 2 0 1 1 1 2 2 2 3 3 2 2 1 1 1 1 1 2 2 2 1 2 4 4 3 3 3 3 3 2 1 1 1 0 1 1
4 2 3 4 6 4 2 2 1 1 1 2 2 3 2 3 3 3 3 2 2 2 1 1 1 2 3 3 2 3 4 4 3 3 3 3 3 3 2 1 1 1 2 2
5 4 4 5 5 2 3 3 2 1 1 2 3 2 3 3 3 3 3 2 2 2 2 1 2 3 4 4 3 4 4 3 3 4 3 3 2 3 3 2 2 3 3 3
5 5 6 7 4 4 3 1 0 1 2 3 3 3 3 2 3 3 3 3 2 2 2 2 2 3 4 4 4 4 3 3 3 3 3 3 3 2 2 2 3 5 5 6
Wind_Direction
129 118 204 213 210 221 211 219 243 248 246 218 235 257 269 265 244 243 241 230 228 230 229 203 193 184 175 175 178 180 179 180 167 167 171 175 190 187 181 186 178 169 165 164
92 235 231 226 224 227 243 253 261 279 267 235 258 270 269 256 238 231 230 229 229 232 222 196 190 179 183 186 188 186 185 182 180 184 184 185 180 190 188 179 180 179 173 177
196 227 217 202 213 222 236 229 237 254 313 295 302 294 268 269 248 248 236 229 224 214 210 206 201 202 191 193 195 194 193 186 186 170 144 124 109 107 166 193 196 194 183 184
231 257 212 205 218 206 244 234 221 227 244 269 207 280 273 247 281 272 260 250 239 225 209 204 200 199 199 205 198 191 186 184 180 166 160 162 177 189 205 198 196 191 187 186
232 215 203 218 223 196 220 240 214 212 203 271 233 237 277 248 255 260 257 251 246 230 205 198 197 200 200 196 187 182 176 178 174 172 174 178 188 197 185 170 170 185 196 196
241 248 221 225 226 197 168 61 29 45 85 258 219 201 270 233 225 241 246 252 247 223 202 201 199 181 183 172 169 169 171 179 172 176 179 189 194 186 174 189 188 197 204 209
285 256 247 181 132 48 136 112 33 347 307 248 213 208 249 243 230 221 224 235 255 221 176 171 161 169 180 169 172 172 172 182 180 183 193 202 204 199 200 201 203 203 207 214
202 259 220 200 186 184 194 166 172 202 225 270 247 230 252 257 251 229 198 193 104 56 142 151 173 178 187 182 176 175 181 189 187 194 205 208 208 210 217 212 209 210 214 214
190 240 269 199 199 161 163 201 184 142 131 275 259 270 289 289 319 101 106 96 66 308 207 139 121 147 166 166 179 180 178 184 195 200 202 207 213 215 221 218 215 214 216 207
173 217 262 305 75 266 183 155 126 151 178 245 271 255 244 241 242 222 176 185 273 326 6 40 92 149 162 163 165 151 169 190 202 195 198 209 217 219 217 206 211 219 217 204
168 179 247 219 201 194 168 180 172 170 184 183 247 263 230 213 205 192 213 223 221 213 213 264 9 177 138 78 96 117 153 157 192 211 216 224 230 229 211 212 217 217 216 204
179 152 222 235 237 212 191 194 173 179 221 207 220 264 277 203 202 180 200 224 240 204 205 198 110 100 94 78 67 86 128 205 230 218 204 232 270 2 206 230 233 218 213 204
155 151 145 322 290 242 224 214 199 176 159 189 204 254 297 55 214 207 198 240 298 35 25 38 27 22 83 345 352 351 336 290 302 145 171 226 302 261 241 239 238 207 200 195
141 179 190 207 220 186 206 212 194 175 196 217 226 243 271 276 273 280 274 242 200 133 81 56 7 329 321 294 276 314 331 343 13 109 141 223 260 254 256 252 227 205 187 183
131 216 235 255 255 200 214 220 202 209 213 217 234 234 252 252 244 248 264 300 5 352 337 293 287 303 322 342 341 339 334 352 21 103 169 268 296 313 321 303 258 209 193 203
150 208 232 286 275 242 256 239 218 229 234 239 255 263 263 272 264 270 269 245 243 276 287 294 315 334 330 331 334 338 336 349 24 26 299 324 350 355 328 303 321 97 227 222
187 162 169 254 315 355 263 224 206 210 212 205 232 246 252 254 241 234 228 216 230 255 272 281 279 285 305 312 319 297 311 358 32 12 348 348 352 340 311 317 343 269 255 272
182 165 170 189 95 234 242 197 194 204 227 220 239 258 252 240 238 220 164 193 251 277 283 284 296 312 314 315 337 351 17 31 32 3 343 345 344 320 328 334 299 290 288 259
199 173 166 171 219 267 286 242 178 197 245 235 238 258 275 294 58 330 347 263 240 252 266 272 275 316 341 353 0 32 33 28 19 345 327 320 310 305 313 291 282 285 280 274
169 168 171 181 202 238 253 262 244 160 249 270 224 245 252 140 245 271 322 311 293 312 341 352 17 36 23 3 16 43 24 13 332 313 310 313 303 284 265 261 271 285 260 258
152 179 202 210 229 255 269 287 117 181 247 320 214 242 223 202 237 287 331 323 314 329 356 36 54 29 357 6 28 27 0 320 309 317 318 320 305 283 270 268 285 289 262 281
181 182 196 189 221 249 280 127 171 220 304 82 343 271 259 256 292 307 303 303 328 350 5 19 23 349 355 12 22 346 317 316 325 321 314 309 305 295 287 272 286 309 273 270
201 195 191 197 215 218 152 178 211 243 221 282 289 289 280 281 287 296 295 300 315 314 323 350 344 333 344 352 350 301 314 329 324 316 307 309 311 304 296 265 254 255 238 249
236 221 194 234 250 252 237 237 299 307 258 294 300 295 280 277 284 294 291 290 294 308 314 337 337 315 315 323 320 310 321 325 317 307 306 309 305 303 297 274 251 240 233 239
219 192 206 241 254 277 242 221 235 260 300 311 309 301 290 280 282 286 287 286 290 301 305 294 275 278 290 306 310 318 321 321 312 306 305 301 294 291 285 273 255 248 243 238
210 197 205 233 225 218 239 196 149 245 280 280 290 306 313 285 278 288 286 292 298 299 303 297 290 288 293 299 300 307 312 307 296 295 296 290 288 285 281 283 292 286 277 279